Probability
0 0 0 0 0 0 0 0 0 0 0 0 0 0 0 0 0 0 0 0 0 0 0 0 0 0 0 0 0 0 0 0 0 0 0 0 0 0 0 0 0 0 0
0 0 0 0 0 0 0 0 0 0 0 0 0 0 0 0 0 0 0 0 0 0 0 0 0 0 0 0 0 0 0 0 0 0 0 0 0 0 0 0 0 0 0
0 0 0 0 0 0 0 0 0 0 0 0 0 0 0 0 0 0 0 0 0 0 0 0 0 0 0 0 0 0 0 0 0 0 0 0 0 0 0 0 0 0 0
0 0 0 0 0 0 0 0 0 0 0 0 0 0 0 0 0 0 0 0 0 0 0 0 0 0 0 0 0 0 0 0 0 0 0 0 0 0 0 0 0 0 0
0 0 0 0 0 0 0 0 0 0 0 0 0 0 0 0 0 0 0 0 0 0 0 0 0 0 0 0 0 0 0 0 0 0 0 0 0 0 0 0 0 0 0
0 0 0 0 0 0 0 0 0 0 0 0 0 0 0 0 0 0 0 0 0 0 0 0 0 0 0 0 0 0 0 0 0 0 0 0 0 0 0 0 0 0 0
0 0 0 0 0 0 0 0 0 0 0 0 0 0 0 0 0 0 0 0 0 0 0 0 0 0 0 0 0 0 0 0 0 0 0 0 0 0 0 0 0 0 0
0 0 0 0 0 0 0 0 0 0 0 0 0 0 0 0 0 0 0 0 0 0 0 0 0 0 0 0 0 0 0 0 0 0 0 0 0 0 0 0 0 0 0
0 0 0 0 0 0 0 0 0 0 0 0 0 0 0 0 0 0 0 0 0 0 0 0 0 0 0 0 0 0 0 0 0 0 0 0 0 0 0 0 0 0 0
0 0 0 0 0 0 0 0 0 0 0 0 0 0 0 0 0 0 0 0 0 0 0 0 0 0 0 0 0 0 0 0 0 0 0 0 0 0 0 0 0 0 0
0 0 0 0 0 0 0 0 0 0 0 0 0 0 0 0 0 0 0 0 0 0 0 0 0 0 0 0 0 0 0 0 0 0 0 0 0 0 0 0 0 0 0
0 0 0 0 0 0 0 0 0 0 0 0 0 0 0 0 0 0 0 0 0 0 0 0 0 0 0 0 0 0 0 0 0 0 0 0 0 0 0 0 0 0 0
0 0 0 0 0 0 0 0 0 0 0 0 0 0 0 0 0 0 0 0 0 0 0 0 0 0 0 0 0 0 0 0 0 0 0 0 0 0 0 0 0 0 0
0 0 0 0 0 0 0 0 0 0 0 0 0 0 0 0 0 0 0 0 0 0 0 0 0 0 0 0 0 0 0 0 0 0 0 0 0 0 0 0 0 0 0
0 0 0 0 0 0 0 0 0 0 0 0 0 0 0 0 0 0 0 0 0 0 0 0 0 0 0 0 0 0 0 0 0 0 0 0 0 0 0 0 0 0 0
0 0 0 0 0 0 0 0 0 0 0 0 0 0 0 0 0 0 0 0 0 0 0 0 0 0 0 0 0 0 0 0 0 0 0 0 0 0 0 0 0 0 0
0 0 0 0 0 0 0 0 0 0 0 0 0 0 0 0 0 0 0 0 0 0 0 0 0 0 0 0 0 0 0 0 0 0 0 0 0 0 0 0 0 0 0
0 0 0 0 0 0 0 0 0 0 0 0 0 0 0 0 0 0 0 0 0 0 0 0 0 0 0 0 0 0 0 0 0 0 0 0 0 0 0 0 0 0 0
0 0 0 0 0 0 0 0 0 0 0 0 0 0 0 0 0 0 0 0 0 0 0 0 0 0 0 0 0 0 0 0 0 0 0 0 0 0 0 0 0 0 0
0 0 0 0 0 0 0 0 0 0 0 0 0 0 0 0 0 0 0 0 0 0 0 0 0 0 0 0 0 0 0 0 0 0 0 0 0 0 0 0 0 0 0
0 0 0 0 0 0 0 0 0 0 0 0 0 0 0 0 0 0 0 0 0 0 0 0 0 0 0 0 0 0 0 0 0 0 0 0 0 0 0 0 0 0 0
0 0 0 0 0 0 0 0 0 0 0 0 0 0 0 0 0 0 0 0 0 0 0 0 0 0 0 0 0 0 0 0 0 0 0 0 0 0 0 0 0 0 0
0 0 0 0 0 0 0 0 0 0 0 0 0 0 0 0 0 0 0 0 0 0 0 0 0 0 0 0 0 0 0 0 0 0 0 0 0 0 0 0 0 0 0
0 0 0 0 0 0 0 0 0 0 0 0 0 0 0 0 0 0 0 0 0 0 0 0 0 0 0 0 0 0 0 0 0 0 0 0 0 0 0 0 0 0 0
0 0 0 0 0 0 0 0 0 0 0 0 0 0 0 0 0 0 0 0 0 0 0 0 0 0 0 0 0 0 0 0 0 0 0 0 0 0 0 0 0 0 0
0 0 0 0 0 0 0 0 0 0 0 0 0 0 0 0 0 0 0 0 0 0 0 0 0 0 0 0 0 0 0 0 0 0 0 0 0 0 0 0 0 0 0
Wind_Speed
6 6 8 8 8 7 7 7 6 5 4 2 2 1 0 0 1 0 0 1 1 1 1 1 1 1 1 1 1 1 2 2 1 2 2 3 2 1 0 1 1 1 1
6 6 7 7 8 7 7 7 6 6 4 3 2 2 2 1 1 1 1 1 1 1 1 0 1 1 1 2 1 1 1 1 2 1 1 2 4 3 1 0 1 1 1
11 9 7 7 7 8 8 7 6 6 5 4 2 2 2 2 2 1 1 2 1 1 1 1 1 1 0 0 1 0 1 0 1 1 2 2 1 2 2 1 1 1 0
9 9 8 7 8 7 7 7 7 6 5 4 4 3 2 1 2 2 2 2 2 2 1 1 1 1 1 1 1 1 1 1 0 1 1 1 2 1 1 2 1 0 0
11 11 10 9 8 8 8 7 7 6 4 4 4 4 2 2 1 1 1 2 2 2 2 2 1 1 1 1 1 0 1 1 1 1 0 1 1 1 1 1 2 2 1
9 9 8 7 6 6 7 7 7 5 4 4 4 4 4 2 1 1 1 2 2 2 3 2 1 1 1 1 2 1 1 1 1 1 1 1 1 0 1 1 1 1 2
9 9 9 8 8 8 7 7 7 5 4 4 4 4 4 4 3 2 2 2 2 2 3 2 2 1 1 1 1 1 1 2 2 2 1 1 1 2 2 1 0 1 1
9 10 11 10 10 9 8 8 7 6 5 4 4 4 4 3 2 2 2 2 2 3 3 2 1 1 1 0 1 1 1 1 2 2 2 1 1 2 2 2 2 1 1
9 10 9 10 10 10 9 9 8 6 5 5 5 4 4 3 3 3 2 2 2 2 2 1 1 1 1 0 1 1 1 1 1 2 2 1 1 1 2 2 2 3 1
8 9 9 10 9 9 8 8 8 8 6 6 5 4 4 4 3 2 2 2 2 2 1 1 1 1 1 0 1 0 0 1 1 1 1 1 1 1 1 1 2 2 3
9 9 8 9 8 7 7 8 7 6 6 6 5 4 4 3 3 2 2 2 2 1 1 1 1 1 1 0 0 0 1 1 0 0 1 1 1 1 1 1 1 2 2
8 8 8 7 7 8 8 8 8 7 7 6 5 5 4 3 3 3 3 2 1 1 2 1 1 1 0 0 1 1 1 1 1 1 1 1 1 1 1 1 1 1 2
5 5 6 7 8 9 9 8 8 8 7 6 6 5 4 4 4 4 3 2 1 1 1 1 1 1 1 0 1 1 1 1 2 2 2 2 2 1 1 2 2 1 1
5 5 6 7 7 8 8 9 8 8 7 7 6 6 6 5 5 4 3 2 2 1 1 1 1 1 1 1 0 1 1 1 1 1 2 2 3 3 3 2 2 2 1
4 6 7 7 6 6 7 8 8 8 8 7 7 7 6 5 5 4 3 2 2 2 2 1 1 0 1 1 1 1 1 1 0 0 1 1 2 3 3 2 3 2 2
6 7 6 6 7 8 8 8 8 8 8 8 8 7 6 5 5 5 4 3 2 2 2 1 1 1 1 1 2 2 1 1 1 1 1 1 1 1 2 3 4 5 4
5 6 7 8 8 8 8 9 9 8 8 9 8 7 7 7 6 5 4 4 3 2 2 2 2 2 2 2 2 3 2 1 1 1 1 1 1 0 1 0 1 2 3
4 5 5 6 6 6 6 7 7 7 9 9 8 8 8 8 6 5 5 5 3 3 3 3 3 2 3 3 2 3 2 1 1 1 2 1 1 1 2 1 1 0 1
4 4 5 5 5 5 5 6 6 7 8 9 9 9 9 8 7 7 6 5 4 3 3 3 3 3 3 3 2 3 2 1 0 1 1 1 1 2 3 3 2 0 1
2 2 2 1 3 4 4 5 6 7 9 9 10 9 9 9 9 9 7 5 4 5 4 3 3 4 3 3 3 5 2 1 0 1 1 1 1 1 3 3 3 2 1
2 1 1 1 3 3 3 5 6 8 9 7 7 8 9 10 9 8 6 5 5 4 4 3 3 3 4 3 3 5 3 2 2 1 0 1 0 2 2 3 2 3 2
3 1 1 2 2 2 3 5 7 8 5 5 6 8 8 8 7 7 6 6 6 5 4 3 2 2 3 3 3 5 5 4 3 2 1 1 1 3 3 2 3 3 3
4 3 2 3 3 2 3 5 7 4 4 5 6 7 7 6 6 8 8 6 5 5 4 4 4 3 2 2 4 4 5 6 3 2 2 2 3 4 3 5 5 4 3
5 4 3 3 4 4 4 5 4 4 5 6 6 6 7 6 5 5 6 6 6 6 6 5 5 4 3 2 2 2 3 4 3 2 2 4 5 4 4 4 3 2 2
5 4 3 4 6 5 5 4 3 4 5 5 5 5 6 7 6 5 4 6 6 8 8 7 6 6 5 6 7 5 4 4 4 4 2 2 2 2 2 2 2 2 2
5 5 5 5 6 5 5 4 3 5 5 5 5 4 4 5 5 5 2 1 3 7 9 9 8 6 7 9 9 9 8 8 9 6 3 3 2 2 2 2 2 2 2
Wind_Direction
171 162 157 149 142 144 141 142 139 143 129 112 109 102 73 331 4 329 18 25 14 20 31 1 351 3 7 331 340 356 3 348 354 27 359 347 345 0 62 166 168 187 193
156 164 154 148 148 151 148 145 146 147 145 145 155 162 164 209 235 302 353 333 329 331 13 33 321 330 358 359 6 44 34 349 25 81 63 3 352 350 357 1 179 160 152
170 172 160 155 152 154 157 150 149 146 146 139 113 77 54 31 13 345 323 302 287 293 314 291 262 294 183 291 301 121 123 21 349 53 119 125 248 313 331 340 36 80 108
171 170 166 165 165 164 153 146 147 148 149 136 127 133 143 182 234 241 262 287 293 295 288 283 267 256 223 232 254 161 150 128 28 344 38 144 167 147 329 335 344 353 164
175 176 175 173 167 158 151 150 146 150 155 145 142 143 157 201 239 256 282 298 301 298 290 287 283 259 226 223 236 213 153 149 155 157 114 48 48 90 133 320 330 344 318
176 174 169 158 155 154 150 149 147 158 162 152 153 160 170 177 179 261 277 291 295 298 294 291 290 262 236 230 223 206 181 171 160 160 151 143 130 157 126 146 286 307 302
171 167 166 166 164 164 161 157 155 166 171 158 164 174 179 177 188 217 234 252 277 286 286 290 281 272 257 237 211 190 192 182 172 176 179 177 182 172 153 139 141 338 315
178 178 178 174 173 172 168 164 165 171 174 169 174 176 179 179 201 215 222 232 241 253 267 273 268 267 279 240 161 149 190 175 182 191 180 177 189 173 167 161 145 80 352
188 187 182 179 178 177 177 173 171 173 181 180 176 178 186 190 205 224 232 242 249 252 257 252 253 283 287 197 126 122 174 156 179 190 183 182 202 185 174 164 154 149 152
191 190 187 187 186 183 179 173 172 177 182 183 185 184 196 204 207 211 238 253 259 261 242 238 251 290 300 284 130 122 187 142 189 193 174 195 216 207 181 171 165 161 160
193 192 193 192 186 178 174 176 178 176 181 188 190 186 200 207 206 214 234 242 248 253 234 226 216 247 280 261 172 187 146 140 177 202 180 211 202 189 191 168 155 165 156
195 192 189 182 182 183 183 182 182 183 189 187 185 192 198 198 203 221 240 232 228 239 228 191 166 195 219 191 170 209 176 172 196 231 179 200 174 176 183 165 172 180 175
193 189 185 186 191 191 190 190 188 191 190 183 182 188 193 197 205 216 225 215 203 224 207 149 172 204 212 204 203 195 204 205 209 210 190 193 159 169 188 179 180 191 179
180 184 196 201 202 198 195 194 197 192 186 183 183 191 198 201 205 205 205 203 191 189 200 196 204 209 211 204 180 147 168 194 221 212 200 197 185 192 189 181 184 173 152
192 196 201 206 206 204 203 198 198 193 187 184 190 200 201 199 197 194 198 199 187 188 187 167 174 192 188 204 177 155 149 161 147 296 245 229 206 198 190 180 180 162 153
211 211 209 207 208 205 203 200 200 196 186 189 198 198 190 191 194 195 192 185 183 179 163 170 187 205 245 226 169 145 133 153 170 248 288 285 273 217 196 185 177 172 168
226 216 213 213 213 209 201 200 201 192 187 195 198 194 189 190 196 192 183 189 193 185 187 206 204 223 259 235 181 164 146 156 207 225 249 284 294 205 157 182 148 192 201
255 240 228 224 220 210 205 200 189 186 191 197 199 196 190 192 192 186 191 196 191 191 201 214 217 223 260 254 207 165 140 144 227 224 211 217 267 243 186 165 137 258 276
249 242 231 222 214 209 203 187 186 188 193 200 203 199 192 190 187 191 198 196 188 196 205 211 209 214 257 261 198 150 125 130 309 287 218 194 229 252 175 149 149 91 322
288 278 282 235 210 218 191 179 192 191 203 208 207 199 192 190 193 198 197 192 188 199 203 213 210 205 224 245 191 159 142 149 241 336 330 242 203 219 155 148 151 163 251
310 317 336 250 234 220 179 188 195 208 213 210 203 196 194 195 195 194 191 187 188 191 200 209 218 213 219 230 204 177 163 178 180 190 285 301 334 108 138 150 161 184 169
330 330 313 289 278 215 187 205 217 220 208 193 195 198 197 198 193 186 190 185 182 186 197 202 219 231 229 220 215 196 185 172 163 183 203 218 105 99 102 118 128 121 108
318 313 295 293 297 260 207 219 235 216 194 191 201 201 196 198 187 185 187 185 184 188 197 195 205 219 223 227 213 198 184 167 157 171 171 144 111 96 82 82 94 94 93
316 312 313 302 294 284 257 240 235 204 189 198 206 199 190 193 191 189 188 186 189 193 195 196 202 205 205 213 208 195 180 167 155 140 117 104 93 84 78 69 62 67 96
318 314 294 277 276 279 277 272 235 197 202 208 206 204 197 191 190 190 194 195 201 200 196 200 194 189 203 215 198 180 180 177 170 140 104 92 91 87 72 63 58 56 68
319 313 300 287 284 281 274 269 241 208 202 214 211 206 202 195 187 181 179 232 210 208 206 200 189 198 199 186 184 181 178 173 159 137 136 144 147 147 143 126 95 71 74